Hourly Weather Chalandri

Today, 23 June, Wednesday

Time Temperature Precipitation Wind Pressure Humidity
00:00 +27°C° 0 mm 1 mps 743 mmHg 59%
01:00 +27°C° 0 mm 1 mps 743 mmHg 59%
02:00 +27°C° 0 mm 1 mps 743 mmHg 58%
03:00 +26°C° 0 mm 1 mps 743 mmHg 59%
04:00 +26°C° 0 mm 1 mps 743 mmHg 59%
05:00 +26°C° 0 mm 1 mps 743 mmHg 60%
06:00 +27°C° 0 mm 1 mps 743 mmHg 55%
07:00 +29°C° 0 mm 1 mps 743 mmHg 51%
08:00 +30°C° 0 mm 1 mps 744 mmHg 46%
09:00 +31°C° 0 mm 1 mps 744 mmHg 43%
10:00 +33°C° 0 mm 1 mps 744 mmHg 40%
11:00 +34°C° 0 mm 1 mps 744 mmHg 37%
12:00 +36°C° 0 mm 2 mps 744 mmHg 36%
13:00 +36°C° 0 mm 3 mps 744 mmHg 35%
14:00 +37°C° 0 mm 3 mps 744 mmHg 34%
15:00 +36°C° 0 mm 3 mps 744 mmHg 36%
16:00 +36°C° 0 mm 3 mps 744 mmHg 38%
17:00 +35°C° 0 mm 3 mps 744 mmHg 40%
18:00 +34°C° 0 mm 3 mps 744 mmHg 45%
19:00 +31°C° 0 mm 2 mps 744 mmHg 50%
20:00 +30°C° 0 mm 2 mps 744 mmHg 55%
21:00 +30°C° 0 mm 1 mps 744 mmHg 55%
22:00 +29°C° 0 mm 1 mps 744 mmHg 56%
23:00 +27°C° 0 mm 0 mps 745 mmHg 57%

Tomorrow, 24 June, Thursday

Time Temperature Precipitation Wind Pressure Humidity
00:00 +29°C° 0 mm 1 mps 745 mmHg 57%
01:00 +29°C° 0 mm 1 mps 745 mmHg 57%
02:00 +28°C° 0 mm 1 mps 745 mmHg 57%
03:00 +28°C° 0 mm 1 mps 745 mmHg 57%
04:00 +28°C° 0 mm 1 mps 745 mmHg 58%
05:00 +28°C° 0 mm 2 mps 745 mmHg 59%
06:00 +29°C° 0 mm 2 mps 745 mmHg 54%
07:00 +30°C° 0 mm 2 mps 745 mmHg 49%
08:00 +32°C° 0 mm 2 mps 745 mmHg 45%
09:00 +34°C° 0 mm 2 mps 745 mmHg 41%
10:00 +35°C° 0 mm 2 mps 745 mmHg 37%
11:00 +36°C° 0 mm 2 mps 745 mmHg 34%
12:00 +37°C° 0 mm 2 mps 745 mmHg 33%
13:00 +37°C° 0 mm 2 mps 745 mmHg 31%
14:00 +38°C° 0 mm 3 mps 744 mmHg 30%
15:00 +38°C° 0 mm 3 mps 744 mmHg 30%
16:00 +37°C° 0 mm 2 mps 744 mmHg 30%
17:00 +37°C° 0 mm 2 mps 744 mmHg 29%
18:00 +36°C° 0 mm 2 mps 744 mmHg 34%
19:00 +34°C° 0 mm 2 mps 744 mmHg 39%
20:00 +31°C° 0 mm 2 mps 744 mmHg 43%
21:00 +31°C° 0 mm 1 mps 744 mmHg 45%
22:00 +30°C° 0 mm 1 mps 744 mmHg 47%
23:00 +30°C° 0 mm 1 mps 745 mmHg 49%

Day after tomorrow, 25 June, Friday

Time Temperature Precipitation Wind Pressure Humidity
00:00 +30°C° 0 mm 1 mps 744 mmHg 48%
01:00 +29°C° 0 mm 1 mps 744 mmHg 47%
02:00 +29°C° 0 mm 1 mps 744 mmHg 46%
03:00 +29°C° 0 mm 1 mps 744 mmHg 46%
04:00 +29°C° 0 mm 1 mps 744 mmHg 46%
05:00 +28°C° 0 mm 1 mps 743 mmHg 46%
06:00 +30°C° 0 mm 1 mps 744 mmHg 43%
07:00 +31°C° 0 mm 1 mps 744 mmHg 40%
08:00 +32°C° 0 mm 1 mps 744 mmHg 38%
09:00 +33°C° 0 mm 1 mps 744 mmHg 35%
10:00 +36°C° 0 mm 2 mps 744 mmHg 33%
11:00 +37°C° 0 mm 2 mps 744 mmHg 30%
12:00 +37°C° 0 mm 2 mps 744 mmHg 30%
13:00 +38°C° 0 mm 3 mps 744 mmHg 29%
14:00 +38°C° 0 mm 3 mps 744 mmHg 29%
15:00 +38°C° 0 mm 3 mps 743 mmHg 30%
16:00 +37°C° 0 mm 3 mps 743 mmHg 32%
17:00 +37°C° 0 mm 2 mps 743 mmHg 33%
18:00 +35°C° 0 mm 2 mps 743 mmHg 37%
19:00 +34°C° 0 mm 2 mps 743 mmHg 41%
20:00 +32°C° 0 mm 1 mps 743 mmHg 45%
21:00 +31°C° 0 mm 1 mps 743 mmHg 46%
22:00 +31°C° 0 mm 1 mps 743 mmHg 48%
23:00 +30°C° 0 mm 1 mps 743 mmHg 50%

26 June, Saturday

Time Temperature Precipitation Wind Pressure Humidity
00:00 +30°C° 0 mm 1 mps 743 mmHg 49%
01:00 +30°C° 0 mm 1 mps 743 mmHg 49%
02:00 +30°C° 0 mm 1 mps 743 mmHg 48%
03:00 +29°C° 0 mm 1 mps 742 mmHg 48%
04:00 +27°C° 0 mm 0 mps 742 mmHg 49%
05:00 +27°C° 0 mm 0 mps 742 mmHg 49%
06:00 +28°C° 0 mm 0 mps 743 mmHg 45%
07:00 +30°C° 0 mm 0 mps 743 mmHg 41%
08:00 +33°C° 0 mm 1 mps 743 mmHg 37%
09:00 +34°C° 0 mm 1 mps 743 mmHg 35%
10:00 +35°C° 0 mm 1 mps 743 mmHg 32%
11:00 +38°C° 0 mm 2 mps 743 mmHg 29%
12:00 +38°C° 0 mm 2 mps 743 mmHg 29%
13:00 +38°C° 0 mm 2 mps 742 mmHg 28%
14:00 +38°C° 0 mm 3 mps 742 mmHg 27%
15:00 +38°C° 0 mm 3 mps 742 mmHg 28%
16:00 +38°C° 0 mm 3 mps 742 mmHg 29%
17:00 +38°C° 0 mm 3 mps 741 mmHg 30%
18:00 +37°C° 0 mm 2 mps 741 mmHg 32%
19:00 +35°C° 0 mm 2 mps 742 mmHg 34%
20:00 +33°C° 0 mm 1 mps 742 mmHg 37%
21:00 +32°C° 0 mm 1 mps 742 mmHg 39%
22:00 +31°C° 0 mm 1 mps 742 mmHg 41%
23:00 +31°C° 0 mm 2 mps 742 mmHg 43%

27 June, Sunday

Time Temperature Precipitation Wind Pressure Humidity
00:00 +30°C° 0 mm 2 mps 742 mmHg 45%
01:00 +30°C° 0 mm 2 mps 742 mmHg 47%
02:00 +29°C° 0 mm 2 mps 742 mmHg 49%
03:00 +29°C° 0 mm 2 mps 742 mmHg 50%
04:00 +28°C° 0 mm 2 mps 742 mmHg 52%
05:00 +28°C° 0 mm 2 mps 742 mmHg 54%
06:00 +29°C° 0 mm 3 mps 742 mmHg 52%
07:00 +30°C° 0 mm 3 mps 743 mmHg 50%
08:00 +31°C° 0 mm 3 mps 743 mmHg 48%
09:00 +33°C° 0 mm 3 mps 743 mmHg 45%
10:00 +34°C° 0 mm 3 mps 743 mmHg 41%
11:00 +35°C° 0 mm 3 mps 743 mmHg 38%
12:00 +36°C° 0 mm 3 mps 743 mmHg 36%
13:00 +36°C° 0 mm 4 mps 743 mmHg 34%
14:00 +37°C° 0 mm 4 mps 743 mmHg 32%
15:00 +36°C° 0 mm 4 mps 743 mmHg 33%
16:00 +35°C° 0 mm 4 mps 743 mmHg 35%
17:00 +35°C° 0 mm 5 mps 743 mmHg 36%
18:00 +33°C° 0 mm 4 mps 743 mmHg 39%
19:00 +31°C° 0 mm 3 mps 743 mmHg 41%
20:00 +30°C° 0 mm 2 mps 743 mmHg 44%
21:00 +30°C° 0 mm 2 mps 743 mmHg 45%
22:00 +29°C° 0 mm 2 mps 743 mmHg 46%
23:00 +29°C° 0 mm 1 mps 743 mmHg 46%

28 June, Monday

Time Temperature Precipitation Wind Pressure Humidity
00:00 +29°C° 0 mm 2 mps 743 mmHg 47%
01:00 +28°C° 0 mm 2 mps 743 mmHg 48%
02:00 +28°C° 0 mm 3 mps 744 mmHg 50%
03:00 +28°C° 0 mm 3 mps 744 mmHg 52%
04:00 +27°C° 0 mm 3 mps 744 mmHg 54%
05:00 +27°C° 0 mm 3 mps 744 mmHg 56%
06:00 +28°C° 0 mm 4 mps 744 mmHg 55%
07:00 +29°C° 0 mm 4 mps 744 mmHg 55%
08:00 +30°C° 0 mm 4 mps 745 mmHg 54%
09:00 +32°C° 0 mm 5 mps 745 mmHg 50%
10:00 +33°C° 0 mm 5 mps 745 mmHg 45%
11:00 +34°C° 0 mm 5 mps 745 mmHg 41%
12:00 +34°C° 0 mm 5 mps 745 mmHg 40%
13:00 +35°C° 0 mm 5 mps 744 mmHg 39%
14:00 +35°C° 0 mm 5 mps 744 mmHg 37%
15:00 +35°C° 0 mm 5 mps 744 mmHg 38%
16:00 +34°C° 0 mm 5 mps 744 mmHg 39%
17:00 +34°C° 0 mm 5 mps 744 mmHg 40%
18:00 +33°C° 0 mm 4 mps 744 mmHg 43%
19:00 +30°C° 0 mm 3 mps 744 mmHg 46%
20:00 +29°C° 0 mm 2 mps 744 mmHg 49%
21:00 +29°C° 0 mm 2 mps 744 mmHg 49%
22:00 +29°C° 0 mm 3 mps 744 mmHg 50%
23:00 +28°C° 0 mm 3 mps 744 mmHg 50%
Show more

We Need Your Consent

Meteoprog and our Service Providers may store and access personal data such as cookies, device identifiers or other similar technologies on your device and process such data to personalise content and ads, as well as provide social media features and to analyse the traffic.

  • Store and/or access information on your device

    Cookies, device identifiers or other information can be stored or accessed on your device for the purposes indicated above.

  • Personalised ads and content, ad and content measurement, audience insights, and products development

    Ads and content can be personalised based on a profile. More data can be added to better personalise ads and content. Ad and content performance can be measured. Insights about the audience who saw the ads and content can be derived. Such data can be used to develop or improve user’s experience, systems and software.

By clicking ‘I Agree’ you will allow the use of indicated cookies, device identifiers, web beacons or other similar technologies. Your settings can be changed in the browser on your device.

For certain purposes, legitimate interests may be relied on, rather than consent. You can read more about this in our Privacy and Cookie Policy.